Weather in Paulo Afonso

Brazil     9°25′50″S   38°12′40″W
temp.,
°C
wind,
m/s
gust,
m/s
humid.,
%
clouds,
%
prec.,
mm/h
press.,
hPa
HPBL,
m
26 june, sun
sun2600:00+18s23973 0.0 101685
03:00+17s23976 0.0 101575
06:00+17s129712 0.0 101546
09:00+24sse466861 0.0 1016992
12:00+27sse565578 0.1 10141527
15:00+27sse455589 0.1 10121497
18:00+22se398759 0.4 1015310
21:00+20se399345 0.6 1017517
27 june, mon
mon2700:00+19sse389235 0.0 1017332
03:00+19sse3108744 0.0 1016424
06:00+19sse4118344 0.0 1017553
09:00+24sse68580 0.0 10181155
12:00+28sse67390 0.0 10161704
15:00+28se67390 0.0 10141855
18:00+22se410580 0.0 1016512
21:00+19sse39861 0.0 1018297
28 june, tue
tue2800:00+19sse3109397 0.0 1018572
03:00+20sse4109198 0.3 1017817
06:00+20sse4109194 0.1 1018746
09:00+23sse577090 0.3 10191036
12:00+23sse476694 0.1 1018836
15:00+26sse5654100 0.1 10151638
18:00+22se377090 0.1 1017508
21:00+21se287549 0.1 1020515
29 june, wed
wed2900:00+17se11940 0.0 101913
03:00+17s22960 0.0 101836
06:00+16se25976 0.0 1019117
09:00+24se46640 0.0 1020875
12:00+28se444630 0.0 10171576
15:00+26se565696 0.0 10151075
18:00+22se38760 0.0 1016223
21:00+19se29953 0.0 1018266
30 june, thu
thu3000:00+18sse279930 0.0 1017230
03:00+18se279963 0.0 1016233
06:00+19se279397 0.0 1017395
09:00+22se367598 0.0 1018649
12:00+26se455890 0.0 10161304
15:00+27ese555795 0.0 10141346
18:00+23ese487946 0.2 1015405
21:00+20se4109352 0.3 1017393